sat.trackr.live / text

‹ back to catalog

CUBESAT XI-IV (CO-57)

NORAD 27848 · 2003-031J

PAYLOAD ACTIVE UNKNOWN

§ Identity

Operator
Country
JPN
Launch date
2003-06-30
Launch site
PLMSC
Launch vehicle
Mass (kg)
RCS (m²)
0.03

Purposes: comms, tech_demo

External: N2YO · Heavens-Above · Gunter

§ Orbital elements

Epoch: 2026-05-24T23:20:28.326048Z

Period
101.15 min
Inclination
98.6769°
Eccentricity
0.0008197
Mean motion
14.23606459 rev/d
Perigee alt
807.3 km
Apogee alt
819.1 km
Semi-major
7,191.3 km
B*
1.0563e-4
RAAN
153.5547°
Arg perigee
271.8870°
Mean anomaly
88.1369°
Rev number
18,807

§ Raw data

CUBESAT XI-IV (CO-57)1 27848U 03031J   26144.97255007  .00000197  00000+0  10563-3 0  99922 27848  98.6769 153.5547 0008197 271.8870  88.1369 14.23606459188073

JSON: /api/v1/satellites/27848 · /tle

For live sub-satellite position, see the globe view (requires WebGL).

§ Visibility from observer

Set your observer location to see the next 7 days of passes ≥ 10°. The values pass through the URL so the page stays shareable.

No JS? Fill the form by hand. The geolocation button needs JavaScript.

§ Radio — SatNOGS DB

ModeDescriptionDownlinkUplink
AFSK Mode U AFSK TLM 437.490 MHz
CW Mode U CW Beacon 436.848 MHz
CW PE0SAT - CW Beacon 436.849 MHz

3 transmitters · refreshed weekly from db.satnogs.org